Miscellaneous Local Product
Issued by NWS North Platte, NE

Home | Current Version | Previous Version | Graphics & Text | Print | Product List | Glossary On
Versions: 1 2 3 4 5 6 7 8 9 10 11 12 13 14 15 16 17 18 19 20 21 22 23 24 25 26 27 28 29 30 31 32 33 34 35 36 37 38 39 40 41 42 43 44 45 46 47 48 49 50
607
AXUS43 KLBF 230410
MISLBF


WESTERN AND NORTH CENTRAL NEBRASKA HOURLY WEATHER ROUNDUP
NATIONAL WEATHER SERVICE NORTH PLATTE NE
1000 PM CST WED NOV 22 2017

NOTE: "FAIR" INDICATES FEW OR NO CLOUDS BELOW 12,000 FEET WITH NO
SIGNIFICANT WEATHER AND/OR OBSTRUCTIONS TO VISIBILITY.

NOTE: STATIONS NOT REPORTING VARIABLES SUCH AS SKY/WEATHER OR
PRESSURE ARE PROVIDED BY RAWS AND APRS NETWORKS AND ARE NOT UNDER
NATIONAL WEATHER SERVICE QUALITY CONTROL.

...OBSERVATIONS IN AND NEAR THE EASTERN PANHANDLE OF NEBRASKA...

CITY           SKY/WX    TMP DP  RH WIND       PRES   REMARKS
PINE RIDGE     CLOUDY    44  35  70 W3        30.11R
GORDON         FAIR      44  35  71 W8        30.11S
CHADRON        CLOUDY    44  36  73 SW6       30.13R
ALLIANCE       CLOUDY    40  36  86 W12       30.15R WCI  33
SIDNEY         CLEAR     43  36  76 W9        30.19R
CRESCENT LAKE    N/A     47  38  72 W9          N/A
$$

...OBSERVATIONS IN NORTHERN NEBRASKA AND FAR SOUTHERN SOUTH DAKOTA...

CITY           SKY/WX    TMP DP  RH WIND       PRES   REMARKS
WINNER         FAIR      49  38  65 W6        30.01R
VALENTINE      CLEAR     44  35  70 W5        30.05R
THEDFORD       CLEAR     45  36  69 NW3       30.09R
AINSWORTH      CLEAR     44  36  72 W6        30.04R
O`NEILL        CLEAR     44  36  73 W7        30.00R
ORD            CLEAR     33  28  81 CALM      30.03S
BROKEN BOW     CLOUDY    36  29  75 NW3       30.06R
VALENTINE NWR    N/A     50  36  58 W6          N/A
HALSEY           N/A     50  36  59 CALM        N/A
BUTTE            N/A     49  37  63 SW3         N/A
CHAMBERS         N/A     42  30  63 W7          N/A
EWING            N/A     41  32  69 CALM        N/A
$$

...OBSERVATIONS IN SOUTHWEST NEBRASKA AND FAR NORTHEAST COLORADO...

CITY           SKY/WX    TMP DP  RH WIND       PRES   REMARKS
HOLYOKE        FAIR      46  36  66 W10       30.16S
IMPERIAL       CLEAR     49  37  63 W9        30.12F
OGALLALA       CLEAR     55  41  60 NW16      30.11S
NORTH PLATTE   CLEAR     36  32  85 NW5       30.09S WCI  32
MCCOOK         CLEAR     43  36  76 SW6       30.09S
LEXINGTON      CLEAR     39  32  76 W6        30.08R WCI  35
STAPLETON        N/A     43  35  72 CALM        N/A
GOTHENBURG       N/A     44  34  67 CALM        N/A
CALLAWAY         N/A     40  32  73 CALM        N/A
$$

...OBSERVATIONS IN CENTRAL LINCOLN COUNTY AREA...

CITY           SKY/WX    TMP DP  RH WIND       PRES   REMARKS
N.P. AIRPORT   CLEAR     36  32  85 NW5       30.09S WCI  32
N.P. DOWNTOWN    N/A     42  36  79 CALM        N/A
N.P. SOUTHEAST   N/A     45  36  70 CALM        N/A
N.P. HILLCREST   N/A     46  36  68 W3          N/A
$$

...SOME OBSERVATIONS FROM AROUND THE REGION...

CITY           SKY/WX    TMP DP  RH WIND       PRES   REMARKS
DENVER         PTCLDY    51  34  52 SW8       30.26S
COPPER MTN     SNOW      34  32  93 MISG      30.62S VSB 1/4
GRAND JUNCTION CLOUDY    47  32  56 E5        30.40S
LARAMIE        CLOUDY    39  35  86 W7        30.36R WCI  34
CHEYENNE       CLEAR     49  38  65 NW12      30.28R
CASPER         CLOUDY    44  37  76 SW6       30.25S
BISMARCK       CLOUDY    28  23  81 CALM      30.00R
RAPID CITY     CLEAR     44  35  70 W6        30.08R
PIERRE         CLEAR     43  36  76 NW8       29.99R
SIOUX FALLS    CLEAR     35  22  58 SW3       29.92S
OMAHA          CLEAR     35  20  54 SE10      30.05F WCI  27
GRAND ISLAND   CLOUDY    43  29  57 SW8       30.06S
SCOTTSBLUFF    CLEAR     43  36  76 N8        30.19R
KANSAS CITY    MOCLDY    36  20  52 S12       30.15F WCI  28
HILL CITY      CLEAR     48  35  60 W7        30.10S
WICHITA        CLEAR     34  22  61 S8        30.18S WCI  27
DODGE CITY     CLEAR     41  28  60 SW8       30.14S
OKLAHOMA CITY  CLOUDY    34  21  59 S3        30.23S
DALLAS         CLOUDY    45  23  42 CALM      30.26S
AMARILLO       CLOUDY    41  30  65 SW7       30.23S
$$




USA.gov is the U.S. government's official web portal to all federal, state and local government web resources and services.